Preview of NWS' New Version of Forecast
This preview is not operational and should not be used for support decisions.

Regional Weather Roundup (RWR)

Issued by National Weather Service (NWS)

                            
000
ASUS45 KBOI 220710
RWRID 

IDAHO REGIONAL WEATHER ROUNDUP
NATIONAL WEATHER SERVICE BOISE ID
100 AM MDT SUN SEP 22 2019

NOTE: "FAIR" INDICATES FEW OR NO CLOUDS BELOW 12000 FEET
WITH NO SIGNIFICANT WEATHER AND/OR OBSTRUCTIONS TO VISIBILITY

IDZ012-014-220800-
SOUTHWEST IDAHO

  
CITY           SKY/WX    TMP DP  RH WIND       PRES   REMARKS
BOISE          CLEAR     54  41  61 SE10      30.05F                  
CALDWELL       CLEAR     49  44  83 E6        30.05S                  
MOUNTAIN HOME  CLEAR     50  42  75 S3        30.07F                  
$$

IDZ016-017-220800-
SOUTHCENTRAL IDAHO

  
CITY           SKY/WX    TMP DP  RH WIND       PRES   REMARKS
BURLEY         CLEAR     45  36  70 SW8       30.10F                  
JEROME         CLEAR     49  37  63 SE6       30.11S                  
TWIN FALLS     CLEAR     47  35  63 SW10      30.11F                  
$$

IDZ019>023-220800-
SOUTHEAST IDAHO

  
CITY           SKY/WX    TMP DP  RH WIND       PRES   REMARKS
IDAHO FALLS    PTCLDY    43  37  79 SW7       30.12F                  
POCATELLO      CLEAR     49  35  58 CALM      30.12F                  
REXBURG        CLOUDY    50  40  68 SW8       30.11F                  
$$

IDZ006-010-011-018-031-032-220800-
CENTRAL IDAHO MOUNTAINS

  
CITY           SKY/WX    TMP DP  RH WIND       PRES   REMARKS
MCCALL         CLEAR     41  36  82 CALM      30.11S                  
HAILEY         CLEAR     43  37  81 NW7       30.16S                  
STANLEY          N/A     34  30  85 S3        30.19S                  
SALMON         CLOUDY    49  45  86 SW5       30.10S                  
CHALLIS        CLOUDY    49  35  58 CALM      30.12S                  
$$

IDZ002-004-006-007-026-220800-
NORTHERN IDAHO

  
CITY           SKY/WX    TMP DP  RH WIND       PRES   REMARKS
LEWISTON       CLEAR     58  46  64 E7        29.98F                  
LOWELL           N/A     52  50  93 CALM      30.07S                  
COEUR D'ALENE  CLEAR     46  43  89 CALM      30.01S                  
MULLAN PASS    MOCLDY    45  39  79 SW6       30.10F                  
$$